,,Stat6,,Stat2,,Stat8,,Stat9,,Stat10,,Wind1,,Wind1,
time,status,PA1M_AVG,status,PR1M_SUM,status,RH1M_AVG,status,SR1M_AVG,status,TA1M_AVG,status,W1dAve1m,status,W1sAve1m,
2009-01-20, 00:00:00,VALID,917.317,VALID,0,VALID,94.7651,VALID,-0.0339617,VALID,20.3333,VALID,60,VALID,0,
2009-01-20, 00:01:00,VALID,917.318,VALID,0,VALID,95.1669,VALID,-0.0509425,VALID,20.3461,VALID,60,VALID,0,
2009-01-20, 00:02:00,VALID,917.334,VALID,0,VALID,95.2762,VALID,-0.0339617,VALID,20.3296,VALID,58,VALID,0.0779474,
2009-01-20, 00:03:00,VALID,917.322,VALID,0,VALID,95.4657,VALID,-0.0339617,VALID,20.2974,VALID,344,VALID,0.321555,
2009-01-20, 00:04:00,VALID,917.338,VALID,0,VALID,95.5611,VALID,-0.0169808,VALID,20.2517,VALID,246,VALID,0.158537,
2009-01-20, 00:05:00,VALID,917.339,VALID,0,VALID,95.8281,VALID,-0.0509425,VALID,20.2227,VALID,246,VALID,0,
2009-01-20, 00:06:00,VALID,917.334,VALID,0,VALID,95.8281,VALID,-0.0169808,VALID,20.1938,VALID,208,VALID,0,
2009-01-20, 00:07:00,VALID,917.313,VALID,0,VALID,95.6081,VALID,-0.0509425,VALID,20.1903,VALID,165,VALID,0,
2009-01-20, 00:08:00,VALID,917.292,VALID,0,VALID,95.5128,VALID,-0.0849042,VALID,20.2133,VALID,195,VALID,0,
2009-01-20, 00:09:00,VALID,917.282,VALID,0,VALID,95.467,VALID,-0.0679233,VALID,20.2487,VALID,195,VALID,0,
2009-01-20, 00:10:00,VALID,917.275,VALID,0,VALID,95.2686,VALID,-0.0339617,VALID,20.2782,VALID,205,VALID,0,
2009-01-20, 00:11:00,VALID,917.258,VALID,0,VALID,95.0257,VALID,-0.0169808,VALID,20.2976,VALID,192,VALID,0.252539,
2009-01-20, 00:12:00,VALID,917.242,VALID,0,VALID,94.7892,VALID,-0.0679233,VALID,20.3204,VALID,164,VALID,0,
2009-01-20, 00:13:00,VALID,917.253,VALID,0,VALID,94.5527,VALID,-0.0679233,VALID,20.3661,VALID,220,VALID,0.250533,
2009-01-20, 00:14:00,VALID,917.246,VALID,0,VALID,93.9856,VALID,-0.0849042,VALID,20.4015,VALID,176,VALID,0.82976,
2009-01-20, 00:15:00,VALID,917.264,VALID,0,VALID,93.5481,VALID,-0.0849042,VALID,20.4507,VALID,145,VALID,0.304688,
2009-01-20, 00:16:00,VALID,917.249,VALID,0,VALID,93.1883,VALID,-0.0679233,VALID,20.4796,VALID,164,VALID,0.606771,
2009-01-20, 00:17:00,VALID,917.254,VALID,0,VALID,92.9174,VALID,-0.0339617,VALID,20.5186,VALID,142,VALID,0.865885,
2009-01-20, 00:18:00,VALID,917.236,VALID,0,VALID,92.6033,VALID,-0.0339617,VALID,20.5478,VALID,126,VALID,0.420058,
2009-01-20, 00:19:00,VALID,917.21,VALID,0,VALID,92.2511,VALID,-0.0339617,VALID,20.5575,VALID,143,VALID,1.30822,
2009-01-20, 00:20:00,VALID,917.202,VALID,0,VALID,92.0375,VALID,-0.0509425,VALID,20.59,VALID,167,VALID,1.04358,
2009-01-20, 00:21:00,VALID,917.18,VALID,0,VALID,91.8798,VALID,-0.0849042,VALID,20.6062,VALID,136,VALID,0.589844,
2009-01-20, 00:22:00,VALID,917.175,VALID,0,VALID,91.7348,VALID,-0.0509425,VALID,20.6225,VALID,151,VALID,0.252096,
2009-01-20, 00:23:00,VALID,917.174,VALID,0,VALID,91.4309,VALID,-0.0679233,VALID,20.6254,VALID,148,VALID,1.57795,
2009-01-20, 00:24:00,VALID,917.18,VALID,0,VALID,91.2872,VALID,-0.0509425,VALID,20.6484,VALID,146,VALID,1.30806,
2009-01-20, 00:25:00,VALID,917.183,VALID,0,VALID,91.3012,VALID,-0.0509425,VALID,20.6709,VALID,171,VALID,0.457698,
2009-01-20, 00:26:00,VALID,917.177,VALID,0,VALID,91.0265,VALID,-0.0339617,VALID,20.6868,VALID,178,VALID,1.34451,
2009-01-20, 00:27:00,VALID,917.192,VALID,0,VALID,90.8968,VALID,-0.0679233,VALID,20.7136,VALID,170,VALID,0.826705,
2009-01-20, 00:28:00,VALID,917.186,VALID,0,VALID,90.7887,VALID,-0.0339617,VALID,20.7296,VALID,171,VALID,0.339453,
2009-01-20, 00:29:00,VALID,917.186,VALID,0,VALID,90.6718,VALID,-0.0849042,VALID,20.7396,VALID,169,VALID,1.53906,
2009-01-20, 00:30:00,VALID,917.162,VALID,0,VALID,90.6552,VALID,-0.0849042,VALID,20.749,VALID,183,VALID,0.435023,
2009-01-20, 00:31:00,VALID,917.132,VALID,0,VALID,90.5739,VALID,-0.0849042,VALID,20.749,VALID,171,VALID,1.97532,
2009-01-20, 00:32:00,VALID,917.117,VALID,0,VALID,90.7379,VALID,-0.0679233,VALID,20.7425,VALID,178,VALID,0.880451,
2009-01-20, 00:33:00,VALID,917.095,VALID,0,VALID,90.7977,VALID,-0.0849042,VALID,20.7393,VALID,182,VALID,1.23082,
2009-01-20, 00:34:00,VALID,917.065,VALID,0,VALID,90.9782,VALID,-0.101885,VALID,20.7198,VALID,175,VALID,0.432528,
2009-01-20, 00:35:00,VALID,917.053,VALID,0,VALID,91.0405,VALID,-0.101885,VALID,20.7004,VALID,182,VALID,1.13121,
2009-01-20, 00:36:00,VALID,917.042,VALID,0,VALID,91.0647,VALID,-0.0679233,VALID,20.6841,VALID,185,VALID,1.28569,
2009-01-20, 00:37:00,VALID,917.044,VALID,0,VALID,91.2109,VALID,-0.0849042,VALID,20.6676,VALID,176,VALID,0.853609,
2009-01-20, 00:38:00,VALID,917.034,VALID,0,VALID,91.1537,VALID,0,VALID,20.6469,VALID,169,VALID,1.11198,
2009-01-20, 00:39:00,VALID,917.019,VALID,0,VALID,90.9324,VALID,0.0169808,VALID,20.6598,VALID,167,VALID,0.888626,
2009-01-20, 00:40:00,VALID,917.007,VALID,0,VALID,91.0316,VALID,-0.0169808,VALID,20.6531,VALID,166,VALID,1.40313,
2009-01-20, 00:41:00,VALID,916.978,VALID,0,VALID,91.1779,VALID,0.0169808,VALID,20.6406,VALID,179,VALID,1.32972,
2009-01-20, 00:42:00,VALID,916.96,VALID,0,VALID,91.3533,VALID,-0.0169808,VALID,20.6209,VALID,168,VALID,0.969131,
2009-01-20, 00:43:00,VALID,916.948,VALID,0,VALID,91.4144,VALID,0,VALID,20.6082,VALID,159,VALID,0.583274,
2009-01-20, 00:44:00,VALID,916.939,VALID,0,VALID,91.525,VALID,0,VALID,20.5884,VALID,147,VALID,0.00181686,
2009-01-20, 00:45:00,VALID,916.928,VALID,0,VALID,91.6827,VALID,0.0169808,VALID,20.5787,VALID,225,VALID,0.139291,
2009-01-20, 00:46:00,VALID,916.924,VALID,0,VALID,91.9294,VALID,0,VALID,20.5757,VALID,223,VALID,0.180556,
2009-01-20, 00:47:00,VALID,916.909,VALID,0,VALID,92.1417,VALID,0.0169808,VALID,20.5627,VALID,149,VALID,0.430259,
2009-01-20, 00:48:00,VALID,916.894,VALID,0,VALID,92.1913,VALID,0.0169808,VALID,20.5073,VALID,151,VALID,0.102834,
2009-01-20, 00:49:00,VALID,916.861,VALID,0,VALID,92.3045,VALID,0,VALID,20.4848,VALID,172,VALID,0.221875,
2009-01-20, 00:50:00,VALID,916.849,VALID,0,VALID,92.3388,VALID,0,VALID,20.4619,VALID,150,VALID,0.192882,
2009-01-20, 00:51:00,VALID,916.817,VALID,0,VALID,92.3401,VALID,0.0169808,VALID,20.4521,VALID,153,VALID,0.625182,
2009-01-20, 00:52:00,VALID,916.794,VALID,0,VALID,92.2295,VALID,0.0169808,VALID,20.4489,VALID,146,VALID,0.838995,
2009-01-20, 00:53:00,VALID,916.776,VALID,0,VALID,92.185,VALID,0,VALID,20.4232,VALID,132,VALID,1.34449,
2009-01-20, 00:54:00,VALID,916.753,VALID,0,VALID,92.3783,VALID,0.0339617,VALID,20.3905,VALID,145,VALID,0.328125,
2009-01-20, 00:55:00,VALID,916.74,VALID,0,VALID,92.5143,VALID,0.0339617,VALID,20.361,VALID,147,VALID,0.528409,
2009-01-20, 00:56:00,VALID,916.724,VALID,0,VALID,92.6567,VALID,0.0169808,VALID,20.345,VALID,147,VALID,1.09505,
2009-01-20, 00:57:00,VALID,916.723,VALID,0,VALID,92.6211,VALID,0.0849042,VALID,20.3256,VALID,144,VALID,1.50563,
2009-01-20, 00:58:00,VALID,916.705,VALID,0,VALID,92.6478,VALID,0.0679233,VALID,20.3223,VALID,143,VALID,0.669829,
2009-01-20, 00:59:00,VALID,916.691,VALID,0,VALID,92.6135,VALID,0.0339617,VALID,20.3021,VALID,142,VALID,0.72247,
2009-01-20, 01:00:00,VALID,916.687,VALID,0,VALID,92.4622,VALID,0.0509425,VALID,20.3123,VALID,143,VALID,0.866602,
2009-01-20, 01:01:00,VALID,916.678,VALID,0,VALID,92.5245,VALID,0,VALID,20.3156,VALID,134,VALID,0.908482,
2009-01-20, 01:02:00,VALID,916.669,VALID,0,VALID,92.4889,VALID,0.0509425,VALID,20.2993,VALID,134,VALID,1.32385,
2009-01-20, 01:03:00,VALID,916.66,VALID,0,VALID,92.4902,VALID,0.0339617,VALID,20.2834,VALID,141,VALID,1.25091,
2009-01-20, 01:04:00,VALID,916.636,VALID,0,VALID,92.3961,VALID,0.0169808,VALID,20.2672,VALID,141,VALID,0.928838,
2009-01-20, 01:05:00,VALID,916.645,VALID,0,VALID,92.4164,VALID,-0.0169808,VALID,20.2736,VALID,140,VALID,0.528516,
2009-01-20, 01:06:00,VALID,916.634,VALID,0,VALID,92.3032,VALID,0.0339617,VALID,20.2642,VALID,141,VALID,1.73996,
2009-01-20, 01:07:00,VALID,916.643,VALID,0,VALID,92.3643,VALID,0.0169808,VALID,20.2417,VALID,155,VALID,0.404726,
2009-01-20, 01:08:00,VALID,916.629,VALID,0,VALID,92.2867,VALID,-0.0679233,VALID,20.223,VALID,160,VALID,1.2153,
2009-01-20, 01:09:00,VALID,916.629,VALID,0,VALID,92.246,VALID,-0.0849042,VALID,20.2198,VALID,144,VALID,1.09096,
2009-01-20, 01:10:00,VALID,916.615,VALID,0,VALID,92.1163,VALID,-0.0849042,VALID,20.2262,VALID,162,VALID,1.9269,
2009-01-20, 01:11:00,VALID,916.612,VALID,0,VALID,91.9205,VALID,-0.0849042,VALID,20.249,VALID,141,VALID,1.58426,
2009-01-20, 01:12:00,VALID,916.605,VALID,0,VALID,91.7132,VALID,-0.0509425,VALID,20.2687,VALID,145,VALID,1.70579,
2009-01-20, 01:13:00,VALID,916.613,VALID,0,VALID,91.5873,VALID,-0.0849042,VALID,20.2749,VALID,143,VALID,1.23884,
2009-01-20, 01:14:00,VALID,916.628,VALID,0,VALID,91.4843,VALID,-0.0849042,VALID,20.2817,VALID,151,VALID,1.69965,
2009-01-20, 01:15:00,VALID,916.615,VALID,0,VALID,91.3877,VALID,-0.0679233,VALID,20.2947,VALID,160,VALID,1.40376,
2009-01-20, 01:16:00,VALID,916.631,VALID,0,VALID,91.3889,VALID,-0.0849042,VALID,20.2944,VALID,162,VALID,1.66679,
2009-01-20, 01:17:00,VALID,916.637,VALID,0,VALID,91.3483,VALID,-0.0679233,VALID,20.3044,VALID,156,VALID,1.35312,
2009-01-20, 01:18:00,VALID,916.613,VALID,0,VALID,91.1079,VALID,-0.0679233,VALID,20.3174,VALID,166,VALID,2.21615,
2009-01-20, 01:19:00,VALID,916.579,VALID,0,VALID,90.9617,VALID,-0.0679233,VALID,20.3528,VALID,144,VALID,1.03544,
2009-01-20, 01:20:00,VALID,916.559,VALID,0,VALID,90.996,VALID,-0.101885,VALID,20.3271,VALID,138,VALID,1.41423,
2009-01-20, 01:21:00,VALID,916.528,VALID,0,VALID,91.1766,VALID,-0.0679233,VALID,20.2882,VALID,121,VALID,1.22898,
2009-01-20, 01:22:00,VALID,916.498,VALID,0,VALID,91.3495,VALID,-0.0339617,VALID,20.2395,VALID,122,VALID,0.854651,
2009-01-20, 01:23:00,VALID,916.48,VALID,0,VALID,91.492,VALID,-0.0679233,VALID,20.217,VALID,141,VALID,2.03976,
2009-01-20, 01:24:00,VALID,916.464,VALID,0,VALID,91.5352,VALID,-0.0339617,VALID,20.2098,VALID,138,VALID,1.60882,
2009-01-20, 01:25:00,VALID,916.468,VALID,0,VALID,91.5619,VALID,-0.0849042,VALID,20.2003,VALID,116,VALID,0.971591,
2009-01-20, 01:26:00,VALID,916.455,VALID,0,VALID,91.6712,VALID,-0.0679233,VALID,20.1841,VALID,147,VALID,1.92057,
2009-01-20, 01:27:00,VALID,916.451,VALID,0,VALID,91.7068,VALID,-0.101885,VALID,20.1908,VALID,136,VALID,2.16845,
2009-01-20, 01:28:00,VALID,916.45,VALID,0,VALID,91.656,VALID,-0.0679233,VALID,20.2098,VALID,141,VALID,2.13299,
2009-01-20, 01:29:00,VALID,916.439,VALID,0,VALID,91.7234,VALID,-0.0509425,VALID,20.1995,VALID,133,VALID,1.89353,
2009-01-20, 01:30:00,VALID,916.422,VALID,0,VALID,91.9027,VALID,-0.0509425,VALID,20.1811,VALID,124,VALID,1.21239,
2009-01-20, 01:31:00,VALID,916.393,VALID,0,VALID,92.2168,VALID,-0.0849042,VALID,20.1221,VALID,123,VALID,1.21615,
2009-01-20, 01:32:00,VALID,916.382,VALID,0,VALID,92.4762,VALID,-0.0509425,VALID,20.0737,VALID,129,VALID,0.62207,
2009-01-20, 01:33:00,VALID,916.379,VALID,0,VALID,92.5919,VALID,-0.0849042,VALID,20.051,VALID,138,VALID,1.90701,
2009-01-20, 01:34:00,VALID,916.372,VALID,0,VALID,92.5512,VALID,-0.0509425,VALID,20.074,VALID,128,VALID,1.72691,
2009-01-20, 01:35:00,VALID,916.356,VALID,0,VALID,92.4863,VALID,-0.0509425,VALID,20.0478,VALID,123,VALID,1.18674,
2009-01-20, 01:36:00,VALID,916.35,VALID,0,VALID,92.8475,VALID,-0.0679233,VALID,19.9826,VALID,124,VALID,1.51563,
2009-01-20, 01:37:00,VALID,916.36,VALID,0,VALID,93.29,VALID,-0.0339617,VALID,19.9404,VALID,123,VALID,1.6157,
2009-01-20, 01:38:00,VALID,916.336,VALID,0,VALID,93.5965,VALID,-0.0339617,VALID,19.902,VALID,115,VALID,1.56752,
2009-01-20, 01:39:00,VALID,916.334,VALID,0,VALID,93.749,VALID,-0.101885,VALID,19.8695,VALID,118,VALID,0.583097,
2009-01-20, 01:40:00,VALID,916.341,VALID,0,VALID,93.7389,VALID,-0.0849042,VALID,19.8598,VALID,148,VALID,1.54725,
2009-01-20, 01:41:00,VALID,916.32,VALID,0,VALID,93.5914,VALID,-0.0849042,VALID,19.8793,VALID,149,VALID,1.88839,
2009-01-20, 01:42:00,VALID,916.312,VALID,0,VALID,93.421,VALID,-0.0679233,VALID,19.905,VALID,136,VALID,2.03218,
2009-01-20, 01:43:00,VALID,916.288,VALID,0,VALID,93.2493,VALID,-0.0849042,VALID,19.9212,VALID,137,VALID,1.52646,
2009-01-20, 01:44:00,VALID,916.274,VALID,0,VALID,93.1158,VALID,-0.0849042,VALID,19.9274,VALID,134,VALID,1.98772,
2009-01-20, 01:45:00,VALID,916.247,VALID,0,VALID,92.9454,VALID,-0.0509425,VALID,19.9561,VALID,143,VALID,1.84343,
2009-01-20, 01:46:00,VALID,916.249,VALID,0,VALID,92.7381,VALID,-0.0509425,VALID,19.9759,VALID,119,VALID,1.85472,
2009-01-20, 01:47:00,VALID,916.23,VALID,0,VALID,92.7089,VALID,-0.0509425,VALID,19.9856,VALID,134,VALID,1.73456,
2009-01-20, 01:48:00,VALID,916.257,VALID,0,VALID,92.7051,VALID,-0.0339617,VALID,19.9794,VALID,113,VALID,0.834847,
2009-01-20, 01:49:00,VALID,916.269,VALID,0,VALID,92.7877,VALID,-0.0679233,VALID,19.9764,VALID,138,VALID,2.10636,
2009-01-20, 01:50:00,VALID,916.263,VALID,0,VALID,92.7241,VALID,-0.0509425,VALID,19.9824,VALID,130,VALID,1.15696,
2009-01-20, 01:51:00,VALID,916.267,VALID,0,VALID,92.7458,VALID,-0.0849042,VALID,19.9729,VALID,125,VALID,1.1125,
2009-01-20, 01:52:00,VALID,916.248,VALID,0,VALID,92.9581,VALID,-0.0509425,VALID,19.9474,VALID,147,VALID,1.77188,
2009-01-20, 01:53:00,VALID,916.247,VALID,0,VALID,93.0217,VALID,-0.0849042,VALID,19.9274,VALID,138,VALID,1.81309,
2009-01-20, 01:54:00,VALID,916.226,VALID,0,VALID,92.9123,VALID,-0.0509425,VALID,19.9309,VALID,154,VALID,1.88653,
2009-01-20, 01:55:00,VALID,916.216,VALID,0,VALID,92.7953,VALID,-0.0679233,VALID,19.9469,VALID,143,VALID,1.08612,
2009-01-20, 01:56:00,VALID,916.2,VALID,0,VALID,92.6071,VALID,-0.0679233,VALID,19.9726,VALID,148,VALID,2.06309,
2009-01-20, 01:57:00,VALID,916.21,VALID,0,VALID,92.3605,VALID,-0.0679233,VALID,20.0413,VALID,138,VALID,1.41229,
2009-01-20, 01:58:00,VALID,916.199,VALID,0,VALID,92.1634,VALID,-0.0679233,VALID,20.0502,VALID,133,VALID,1.58049,
2009-01-20, 01:59:00,VALID,916.21,VALID,0,VALID,92.1583,VALID,-0.0509425,VALID,20.044,VALID,143,VALID,1.06214,
2009-01-20, 02:00:00,VALID,916.195,VALID,0,VALID,92.0273,VALID,-0.0509425,VALID,20.0802,VALID,147,VALID,1.89081,
2009-01-20, 02:01:00,VALID,916.199,VALID,0,VALID,91.7399,VALID,-0.0849042,VALID,20.1097,VALID,137,VALID,2.07385,
2009-01-20, 02:02:00,VALID,916.201,VALID,0,VALID,91.553,VALID,-0.0849042,VALID,20.1449,VALID,145,VALID,1.65476,
2009-01-20, 02:03:00,VALID,916.199,VALID,0,VALID,91.4983,VALID,-0.0679233,VALID,20.1321,VALID,139,VALID,1.51851,
2009-01-20, 02:04:00,VALID,916.209,VALID,0,VALID,91.6306,VALID,-0.0509425,VALID,20.0954,VALID,135,VALID,0.773633,
2009-01-20, 02:05:00,VALID,916.213,VALID,0,VALID,91.9968,VALID,-0.0509425,VALID,20.0478,VALID,152,VALID,0.333274,
2009-01-20, 02:06:00,VALID,916.209,VALID,0,VALID,92.3516,VALID,-0.0509425,VALID,19.9596,VALID,145,VALID,0.853051,
2009-01-20, 02:07:00,VALID,916.214,VALID,0,VALID,92.6771,VALID,-0.0849042,VALID,19.9075,VALID,170,VALID,0.697311,
2009-01-20, 02:08:00,VALID,916.208,VALID,0,VALID,92.9123,VALID,-0.0849042,VALID,19.8888,VALID,149,VALID,1.19691,
2009-01-20, 02:09:00,VALID,916.206,VALID,0,VALID,92.9594,VALID,-0.0849042,VALID,19.8788,VALID,153,VALID,0.0537791,
2009-01-20, 02:10:00,VALID,916.213,VALID,0,VALID,92.981,VALID,-0.0679233,VALID,19.8955,VALID,161,VALID,0.163061,
2009-01-20, 02:11:00,VALID,916.221,VALID,0,VALID,93.0255,VALID,-0.101885,VALID,19.892,VALID,178,VALID,1.22111,
2009-01-20, 02:12:00,VALID,916.224,VALID,0,VALID,93.1311,VALID,-0.101885,VALID,19.8855,VALID,177,VALID,1.42823,
2009-01-20, 02:13:00,VALID,916.192,VALID,0,VALID,93.3256,VALID,-0.0849042,VALID,19.8663,VALID,177,VALID,1.65465,
2009-01-20, 02:14:00,VALID,916.193,VALID,0,VALID,93.5545,VALID,-0.0849042,VALID,19.8466,VALID,164,VALID,1.32773,
2009-01-20, 02:15:00,VALID,916.185,VALID,0,VALID,93.7783,VALID,-0.0849042,VALID,19.8011,VALID,156,VALID,0.560724,
2009-01-20, 02:16:00,VALID,916.178,VALID,0,VALID,93.9538,VALID,-0.101885,VALID,19.752,VALID,164,VALID,1.03001,
2009-01-20, 02:17:00,VALID,916.166,VALID,0,VALID,94.2056,VALID,-0.0849042,VALID,19.7063,VALID,167,VALID,0.977706,
2009-01-20, 02:18:00,VALID,916.167,VALID,0,VALID,94.3162,VALID,-0.0849042,VALID,19.6836,VALID,161,VALID,1.83467,
2009-01-20, 02:19:00,VALID,916.161,VALID,0,VALID,94.3149,VALID,-0.0849042,VALID,19.6843,VALID,158,VALID,0.254616,
2009-01-20, 02:20:00,VALID,916.161,VALID,0,VALID,94.334,VALID,-0.101885,VALID,19.6679,VALID,151,VALID,0.72093,
2009-01-20, 02:21:00,VALID,916.128,VALID,0,VALID,94.1814,VALID,-0.118866,VALID,19.6776,VALID,155,VALID,2.13039,
2009-01-20, 02:22:00,VALID,916.123,VALID,0,VALID,93.8788,VALID,-0.0849042,VALID,19.7198,VALID,149,VALID,2.19288,
2009-01-20, 02:23:00,VALID,916.138,VALID,0,VALID,93.6537,VALID,0,VALID,19.7475,VALID,139,VALID,0.720486,
2009-01-20, 02:24:00,VALID,916.118,VALID,0,VALID,93.5024,VALID,0.0169808,VALID,19.754,VALID,135,VALID,1.57031,
2009-01-20, 02:25:00,VALID,916.107,VALID,0,VALID,93.3917,VALID,0,VALID,19.7734,VALID,139,VALID,1.07793,
2009-01-20, 02:26:00,VALID,916.093,VALID,0,VALID,93.3587,VALID,0,VALID,19.7767,VALID,134,VALID,0.668786,
2009-01-20, 02:27:00,VALID,916.067,VALID,0,VALID,93.2697,VALID,0.0169808,VALID,19.8031,VALID,157,VALID,1.15407,
2009-01-20, 02:28:00,VALID,916.061,VALID,0,VALID,93.1857,VALID,0.0169808,VALID,19.8161,VALID,152,VALID,1.69978,
2009-01-20, 02:29:00,VALID,916.053,VALID,0,VALID,93.1171,VALID,0,VALID,19.7867,VALID,102,VALID,1.01526,
2009-01-20, 02:30:00,VALID,916.041,VALID,0,VALID,93.2353,VALID,0,VALID,19.7572,VALID,111,VALID,1.66864,
2009-01-20, 02:31:00,VALID,916.025,VALID,0,VALID,93.5634,VALID,0.0169808,VALID,19.7215,VALID,120,VALID,1.89608,
2009-01-20, 02:32:00,VALID,915.991,VALID,0,VALID,93.9042,VALID,0,VALID,19.6828,VALID,136,VALID,1.93941,
2009-01-20, 02:33:00,VALID,915.951,VALID,0,VALID,94.0224,VALID,0,VALID,19.6726,VALID,142,VALID,2.68194,
2009-01-20, 02:34:00,VALID,915.927,VALID,0,VALID,93.7516,VALID,0,VALID,19.7472,VALID,140,VALID,2.42844,
2009-01-20, 02:35:00,VALID,915.897,VALID,0,VALID,93.44,VALID,0.0169808,VALID,19.8091,VALID,145,VALID,2.17422,
2009-01-20, 02:36:00,VALID,915.88,VALID,0,VALID,93.276,VALID,0.0169808,VALID,19.8189,VALID,140,VALID,2.08067,
2009-01-20, 02:37:00,VALID,915.874,VALID,0,VALID,93.2887,VALID,0.0169808,VALID,19.8024,VALID,129,VALID,1.58538,
2009-01-20, 02:38:00,VALID,915.873,VALID,0,VALID,93.248,VALID,-0.0849042,VALID,19.7814,VALID,127,VALID,2.8592,
2009-01-20, 02:39:00,VALID,915.873,VALID,0,VALID,93.2417,VALID,-0.0679233,VALID,19.7974,VALID,144,VALID,1.98847,
2009-01-20, 02:40:00,VALID,915.882,VALID,0,VALID,93.2887,VALID,-0.0679233,VALID,19.7944,VALID,151,VALID,1.67578,
2009-01-20, 02:41:00,VALID,915.871,VALID,0,VALID,93.3345,VALID,-0.118866,VALID,19.7752,VALID,156,VALID,2.18643,
2009-01-20, 02:42:00,VALID,915.878,VALID,0,VALID,93.229,VALID,-0.0849042,VALID,19.7941,VALID,144,VALID,1.68711,
2009-01-20, 02:43:00,VALID,915.857,VALID,0,VALID,93.0586,VALID,-0.0509425,VALID,19.8169,VALID,146,VALID,1.61719,
2009-01-20, 02:44:00,VALID,915.835,VALID,0,VALID,92.9505,VALID,-0.101885,VALID,19.8371,VALID,166,VALID,0.962936,
2009-01-20, 02:45:00,VALID,915.818,VALID,0,VALID,92.939,VALID,-0.101885,VALID,19.8171,VALID,143,VALID,0.987043,
2009-01-20, 02:46:00,VALID,915.795,VALID,0,VALID,92.9988,VALID,-0.101885,VALID,19.7717,VALID,159,VALID,0.493253,
2009-01-20, 02:47:00,VALID,915.782,VALID,0,VALID,93.2201,VALID,-0.0679233,VALID,19.7263,VALID,140,VALID,1.54725,
2009-01-20, 02:48:00,VALID,915.751,VALID,0,VALID,93.1959,VALID,-0.0339617,VALID,19.7387,VALID,147,VALID,1.14553,
2009-01-20, 02:49:00,VALID,915.725,VALID,0,VALID,93.0306,VALID,-0.0509425,VALID,19.7647,VALID,134,VALID,0.903773,
2009-01-20, 02:50:00,VALID,915.704,VALID,0,VALID,93.0497,VALID,-0.0509425,VALID,19.745,VALID,137,VALID,1.59097,
2009-01-20, 02:51:00,VALID,915.693,VALID,0,VALID,93.1463,VALID,-0.0339617,VALID,19.7515,VALID,138,VALID,1.91973,
2009-01-20, 02:52:00,VALID,915.677,VALID,0,VALID,93.2302,VALID,-0.0339617,VALID,19.7352,VALID,131,VALID,1.88008,
2009-01-20, 02:53:00,VALID,915.661,VALID,0,VALID,93.3574,VALID,-0.0169808,VALID,19.7023,VALID,144,VALID,2.02947,
2009-01-20, 02:54:00,VALID,915.64,VALID,0,VALID,93.3701,VALID,-0.0169808,VALID,19.7155,VALID,141,VALID,1.7208,
2009-01-20, 02:55:00,VALID,915.633,VALID,0,VALID,93.2353,VALID,-0.0339617,VALID,19.7155,VALID,132,VALID,1.88077,
2009-01-20, 02:56:00,VALID,915.603,VALID,0,VALID,92.8945,VALID,0,VALID,19.7902,VALID,143,VALID,2.50462,
2009-01-20, 02:57:00,VALID,915.607,VALID,0,VALID,92.5588,VALID,-0.0169808,VALID,19.8486,VALID,155,VALID,1.46112,
2009-01-20, 02:58:00,VALID,915.597,VALID,0,VALID,92.8869,VALID,-0.0339617,VALID,19.8139,VALID,163,VALID,1.51804,
2009-01-20, 02:59:00,VALID,915.573,VALID,0,VALID,93.3523,VALID,0,VALID,19.7158,VALID,152,VALID,1.28693,
2009-01-20, 03:00:00,VALID,915.56,VALID,0,VALID,93.8304,VALID,0,VALID,19.6182,VALID,144,VALID,1.41198,
2009-01-20, 03:01:00,VALID,915.559,VALID,0,VALID,94.1267,VALID,0,VALID,19.5498,VALID,138,VALID,1.34394,
2009-01-20, 03:02:00,VALID,915.551,VALID,0,VALID,94.3162,VALID,0.0169808,VALID,19.5074,VALID,140,VALID,1.66388,
2009-01-20, 03:03:00,VALID,915.549,VALID,0,VALID,94.5692,VALID,0,VALID,19.5016,VALID,149,VALID,1.19186,
2009-01-20, 03:04:00,VALID,915.556,VALID,0,VALID,94.6544,VALID,-0.0339617,VALID,19.4854,VALID,126,VALID,0.763529,
2009-01-20, 03:05:00,VALID,915.564,VALID,0,VALID,94.8299,VALID,-0.0339617,VALID,19.4592,VALID,152,VALID,1.6994,
2009-01-20, 03:06:00,VALID,915.576,VALID,0,VALID,94.9863,VALID,0,VALID,19.4305,VALID,181,VALID,0.53782,
2009-01-20, 03:07:00,VALID,915.571,VALID,0,VALID,95.3309,VALID,0,VALID,19.3881,VALID,158,VALID,0.866642,
2009-01-20, 03:08:00,VALID,915.558,VALID,0,VALID,95.5344,VALID,0.0169808,VALID,19.3522,VALID,165,VALID,1.21275,
2009-01-20, 03:09:00,VALID,915.563,VALID,0,VALID,95.776,VALID,0,VALID,19.31,VALID,169,VALID,0.820668,
2009-01-20, 03:10:00,VALID,915.557,VALID,0,VALID,95.8815,VALID,0,VALID,19.284,VALID,162,VALID,0.101372,
2009-01-20, 03:11:00,VALID,915.562,VALID,0,VALID,96.1308,VALID,0,VALID,19.2581,VALID,161,VALID,1.21801,
2009-01-20, 03:12:00,VALID,915.556,VALID,0,VALID,96.3584,VALID,0,VALID,19.2289,VALID,156,VALID,0.967862,
2009-01-20, 03:13:00,VALID,915.566,VALID,0,VALID,96.5796,VALID,0,VALID,19.2194,VALID,169,VALID,0.774626,
2009-01-20, 03:14:00,VALID,915.56,VALID,0,VALID,96.6826,VALID,-0.0339617,VALID,19.1902,VALID,167,VALID,1.269,
2009-01-20, 03:15:00,VALID,915.551,VALID,0,VALID,96.9916,VALID,0,VALID,19.1867,VALID,164,VALID,1.01322,
2009-01-20, 03:16:00,VALID,915.543,VALID,0,VALID,97.0183,VALID,-0.0509425,VALID,19.164,VALID,136,VALID,0.448686,
2009-01-20, 03:17:00,VALID,915.52,VALID,0,VALID,97.0972,VALID,0,VALID,19.1348,VALID,159,VALID,0.182478,
2009-01-20, 03:18:00,VALID,915.508,VALID,0,VALID,97.2307,VALID,0,VALID,19.1285,VALID,155,VALID,1.49627,
2009-01-20, 03:19:00,VALID,915.507,VALID,0,VALID,97.1468,VALID,0.0169808,VALID,19.1251,VALID,140,VALID,0.326736,
2009-01-20, 03:20:00,VALID,915.5,VALID,0,VALID,97.3464,VALID,-0.0169808,VALID,19.0926,VALID,138,VALID,1.85813,
2009-01-20, 03:21:00,VALID,915.484,VALID,0,VALID,97.4685,VALID,0,VALID,19.0604,VALID,150,VALID,1.12445,
2009-01-20, 03:22:00,VALID,915.487,VALID,0,VALID,97.7851,VALID,0,VALID,19.0372,VALID,153,VALID,1.43359,
2009-01-20, 03:23:00,VALID,915.463,VALID,0,VALID,98.0013,VALID,-0.0169808,VALID,19.0667,VALID,150,VALID,0.67294,
2009-01-20, 03:24:00,VALID,915.461,VALID,0,VALID,97.9225,VALID,-0.0169808,VALID,19.0634,VALID,148,VALID,0.294618,
2009-01-20, 03:25:00,VALID,915.451,VALID,0,VALID,97.9581,VALID,-0.0169808,VALID,19.0472,VALID,156,VALID,0.446801,
2009-01-20, 03:26:00,VALID,915.431,VALID,0,VALID,98.0763,VALID,-0.0169808,VALID,19.0444,VALID,151,VALID,0.706473,
2009-01-20, 03:27:00,VALID,915.437,VALID,0,VALID,98.1475,VALID,-0.0339617,VALID,19.0377,VALID,146,VALID,0.359561,
2009-01-20, 03:28:00,VALID,915.436,VALID,0,VALID,98.1742,VALID,-0.0169808,VALID,19.018,VALID,128,VALID,0.269709,
2009-01-20, 03:29:00,VALID,915.43,VALID,0,VALID,98.1806,VALID,0,VALID,18.9953,VALID,122,VALID,0.222098,
2009-01-20, 03:30:00,VALID,915.431,VALID,0,VALID,98.4082,VALID,0.0169808,VALID,18.9826,VALID,165,VALID,0.653832,
2009-01-20, 03:31:00,VALID,915.441,VALID,0,VALID,98.501,VALID,-0.0339617,VALID,18.9733,VALID,165,VALID,0.817187,